{"data":{"norad_id":58362,"epoch":"2026-05-25T02:20:21.886656Z","epoch_age_seconds":73451,"freshness":"FRESH","line1":"1 58362U 23177M   26145.09747554 -.00000793  00000+0 -19314-4 0  9995","line2":"2 58362  43.0047 279.0401 0001392 255.8391 104.2306 15.27570839139865","mean_motion":15.27570839,"eccentricity":0.0001392,"inclination_deg":43.0047,"raan_deg":279.0401,"arg_perigee_deg":255.8391,"mean_anomaly_deg":104.2306,"bstar":-1.9314e-5,"rev_number":13986,"period_min":94.267314041074,"perigee_km":482.12144658337,"apogee_km":484.03160842942,"semimajor_km":6861.2135275064,"source":"CELESTRAK","updated_at":"2026-05-25T13:38:18.608277Z"}}